www.pogodaiklimat.ru

Погода и климат >> Архив погоды >> Россия >> Эвенкия >> Тура


ПОГОДА в Туре

АРХИВ ПОГОДЫ в Туре

Время (UTC), дата Ветер
(напр.,м/с)
 
Видим.   Явления Облачность Т
(С)
Тd
(С)
f
(%)
Тe
(С)
Тes
(С)
Комфортность P
(гПа)
Po
(гПа)
Тmin
(С)
Tmax
(С)
R
(мм)
R24
(мм)
S
(см)
03 9.07 Ю 2 20 км 4/1 1000 м
[Cu hum Ac trans Ci fib]
+20.6 +8.2 45 +23 +30 комфорт 1020.0 997.7
06 9.07 С 3 20 км 6/0
[Ac trans Ci fib]
+22.8 +5.9 33 +23 +31 комфорт 1017.6 995.6
09 9.07 В 2 20 км 6/0
[Ci fib]
+24.4 +4.0 27 +24 +30 комфорт 1015.7 993.7
12 9.07 С 1 20 км 4/0
[Ci fib]
+24.4 +3.7 26 +24 +25 комфорт 1014.9 992.9 +25.3
15 9.07 В 1 20 км 3/0
[Ci fib]
+17.4 +6.5 49 +18 +18 1014.6 992.3
18 9.07 штиль 0 н/о 3/0
[Ci fib]
+10.8 +5.9 72 +10 +10 1015.7 992.7
21 9.07 штиль 0 20 км 6/0
[Ci fib]
+6.4 +4.8 89 +5 +6 1016.1 992.7
00 10.07 штиль 0 20 км 6/0
[Ci fib]
+10.4 +6.1 75 +10 +14 1015.2 992.3 +6.2
03 10.07 ЮЗ 1 20 км 6/0
[Ci fib]
+19.3 +8.8 51 +21 +32 комфорт 1012.9 990.7
06 10.07 ЮЗ 3 20 км 8/0
[Ci fib]
+26.5 +6.8 29 +26 +35 жарко 1009.7 988.1
09 10.07 З 3 20 км 8/0
[Ac trans Cc]
+28.2 +8.0 28 +28 +32 жарко 1007.8 986.4
12 10.07 С 3 20 км 9/8 600 м
[Cb cap Ac trans]
+24.4 +7.6 34 +25 +25 комфорт 1008.3 986.6 +28.4
15 10.07 С 2 20 км 10/10 600 м
[Cb cap]
+21.0 +8.7 45 +23 +23 комфорт 1009.9 987.8
18 10.07 С 1 н/о 10/10 600 м
[Cb cap]
+17.5 +10.4 63 +19 +19 1010.2 987.9
21 10.07 СЗ 1 20 км 6/6 600 м
[Cb cap]
+15.3 +11.4 78 +16 +16 1010.4 987.9
00 11.07 З 1 20 км 6/0
[Ac trans Cc]
+16.8 +11.9 73 +18 +21 1010.7 988.3 +14.8
03 11.07 С 2 20 км 8/8 600 м
[Cu med, cong]
+21.6 +12.9 58 +24 +26 комфорт 1009.8 987.8
06 11.07 С 4 20 км 8/8 600 м
[Cu med, cong]
+23.7 +11.0 45 +25 +27 комфорт 1008.7 987.0
09 11.07 С 3 20 км 9/9 600 м
[Cu med, cong]
+22.8 +8.6 40 +24 +25 комфорт 1008.8 987.0
12 11.07 С 2
{10}
20 км 8/8 600 м
[Cb cap]
+22.5 +8.1 40 +24 +24 комфорт 1009.2 987.4 +24.3
15 11.07 СВ 3 20 км ясно +17.8 +8.5 54 +18 +18 1010.5 988.2
18 11.07 СЗ 1 н/о ясно +11.5 +7.4 76 +11 +11 1011.6 988.8
21 11.07 СЗ 1 20 км ясно +7.2 +5.6 90 +6 +6 1012.8 989.6
00 12.07 ЮВ 1 20 км ясно +12.4 +7.2 71 +13 +17 1012.4 989.7 +7.2
03 12.07 З 2 20 км 3/3 1000 м
[Cu hum]
+19.2 +6.7 44 +20 +27 1010.9 988.7
06 12.07 Ю 1 10 км дым 4/3 1000 м
[Cu hum Ci fib]
+23.1 +6.6 34 +24 +33 комфорт 1008.3 986.5
09 12.07 ЮЗ 1 10 км дым 6/3 1000 м
[Cu hum Ci fib]
+25.4 +7.0 31 +25 +31 комфорт 1005.9 984.3
12 12.07 СЗ 2 10 км дым 6/3 1000 м
[Cu Sc Ci fib]
+26.2 +8.0 32 +26 +27 жарко 1004.9 983.3 +26.4
15 12.07 СВ 1 10 км дым 1/1 1000 м
[Cu med, cong]
+18.5 +8.0 50 +20 +20 1005.1 983.0
18 12.07 С 1 н/о 4/4 1000 м
[Cu hum]
+12.5 +8.0 74 +13 +13 1006.2 983.6
21 12.07 СЗ 1 4000 м дым 6/6 1000 м
[Cu hum]
+8.7 +7.0 89 +8 +8 1006.6 983.7
00 13.07 З 1 2000 м дым 6/6 1000 м
[Cu hum]
+13.4 +9.1 75 +14 +15 1006.2 983.7 +8.3
03 13.07 штиль 0 4000 м дым 8/3 1000 м
[Cu hum Ci fib]
+21.2 +10.9 52 +23 +31 комфорт 1004.1 982.3
06 13.07 З 1 4000 м дым 8/3 1000 м
[Cu hum Ci sp]
+24.2 +9.8 40 +25 +33 комфорт 1002.5 980.9
09 13.07 В 2 4000 м дым 10/10 600 м
[Cb cap]
+24.4 +9.9 40 +25 +25 комфорт 1002.0 980.4
12 13.07 СЗ 2
{12}
4000 м в посл. час гроза {ливн. осадки} 10/10 600 м
[Cb cap]
+15.4 +13.6 89 +15 +15 1004.6 982.4 +26.0 1
15 13.07 С 1 4000 м слабый ливневой дождь 10/10 600 м
[Cb cap]
+14.6 +13.5 93 +15 +15 1005.3 982.9
18 13.07 СВ 3 н/о слабый ливневой дождь 10/10 600 м
[Cb cap]
+13.8 +12.5 92 +13 +13 1005.4 982.9
21 13.07 С 1 10 км слабый ливневой дождь 10/10 600 м
[Cb cap]
+11.2 +10.4 95 +11 +11 1005.8 983.1
00 14.07 З 1 10 км слабый ливневой дождь 10/10 600 м
[Cb cap]
+10.1 +8.9 92 +10 +10 1006.4 983.6 +10.1 9
03 14.07 С 3 20 км в посл. час ливневой дождь 10/10 600 м
[Cb cap]
+8.4 +6.2 86 +6 +6 1008.2 985.3 +8.4
06 14.07 С 5 20 км {ливн. осадки} 10/10 600 м
[Cb cap]
+8.8 +5.3 79 +5 +5 1008.8 985.9
09 14.07 С 3
{11}
20 км 10/10 600 м
[Cb cap]
+8.9 +5.1 77 +7 +7 1009.7 986.8
12 14.07 С 2 20 км 10/10 600 м
[Cb cap]
+9.2 +5.7 79 +8 +8 1009.6 986.7 +10.1 0.0
15 14.07 СЗ 2 10 км слабый ливневой дождь 10/10 600 м
[Cb cap]
+9.0 +7.3 89 +7 +7 1009.6 986.7
18 14.07 С 1 н/о слабый ливневой дождь 10/10 600 м
[Cb cap]
+10.2 +7.0 81 +10 +10 1009.2 986.4
21 14.07 С 2 20 км {ливн. осадки} 10/10 600 м
[Cb cap]
+10.2 +4.9 70 +9 +9 1009.5 986.7
00 15.07 СЗ 2 20 км {ливн. осадки} 9/9 600 м
[Cb cap]
+10.4 +3.8 64 +9 +10 1010.7 987.8 +8.5 0.4
03 15.07 С 3
{10}
20 км 8/8 600 м
[Cb cap]
+12.5 +3.3 53 +11 +13 1012.2 989.4
06 15.07 СВ 3
{11}
20 км 6/6 600 м
[Cb cap]
+16.5 +2.6 39 +16 +20 1012.4 989.9
09 15.07 СВ 5
{11}
20 км 6/6 600 м
[Cb cap]
+19.5 +1.5 30 +20 +21 1012.0 989.8
12 15.07 С 4
{11}
20 км 9/9 600 м
[Cb cap]
+18.0 +1.2 32 +18 +18 1013.2 990.9 +20.0
15 15.07 С 1 20 км 6/4 1000 м
[Sc Ci fib]
+14.7 +2.6 44 +15 +15 1013.8 991.3
18 15.07 СВ 1 н/о 3/0
[Ac trans]
+9.3 +4.8 73 +9 +9 1014.6 991.6
21 15.07 С 1 20 км 1/0
[Ac trans]
+7.7 +4.3 79 +7 +7 1015.1 992.0
00 16.07 С 3 20 км ясно +12.2 +4.5 59 +11 +14 1015.0 992.2 +7.4

 

Местоположение метеостанции Тура (Эвенкия, Россия): широта 64.33 долгота 100.40 высота над уровнем моря 624 м.

В архиве по умолчанию представлена погода в Туре за последнюю неделю. Архивные данные за месяц целиком и за предыдущие месяцы, начиная с января 2011 года, Вы можете получить, выбрав интересующий диапазон дат из раскрывающегося списка и нажав кнопку "Ввод!".


*Определитесь, кто Вы:
робот инопланетянин человек

Внимание! Время в таблицах - всемирное. Для получения местного времени необходимо прибавить поправку, которая в Туре равна 7 ч.

Смотрите также архив погоды в соседних городах и на ближайших метеорологических станциях:

Погода в Тембенчи (Эвенкия, Россия) (99 км)
Погода в Кербо (Эвенкия, Россия) (182 км)
Погода в Кислокане (Эвенкия, Россия) (190 км)
Погода в Стрелке-Чуне (Эвенкия, Россия) (311 км)
Погода в Тутончанах (Эвенкия, Россия) (320 км)
Погода в Муторае (Эвенкия, Россия) (334 км)
Погода в Байките (Эвенкия, Россия) (359 км)
Погода в Агате (Эвенкия, Россия) (426 км)
Погода в Усть-Камо (Эвенкия, Россия) (428 км)
Погода в Ванаваре (Эвенкия, Россия) (456 км)

Пояснения к столбцам:

Ветер - указаны скорость ветра в м/с - средняя за 10 мин, порывы в срок и между сроками (в фигурных скобках) и направление, откуда дует ветер: С - северный, СВ - северо-восточный, В - восточный, ЮВ - юго-восточный, Ю - южный, ЮЗ - юго-западный, З - западный, СЗ - северо-западный.
Видимость - горизонтальная дальность видимости в метрах или километрах. При видимости от 1 до 10 км при отсутствии осадков обычно наблюдается дымка, при ухудшении видимости до 1 км и менее - туман. В сухую погоду видимость может ухудшаться дымом, пылью или мглою.
Явления - указаны атмосферные явления, наблюдавшиеся в срок или в последний час перед сроком; фигурными скобками обозначены явления, наблюдавшиеся между сроками (за 1-3 часа до срока); квадратными скобками обозначены град или гололедные отложения с указанием их диаметра в мм.
Облачность - указаны через наклонную черту общая и нижняя облачность в баллах и высота нижней границы облаков в метрах; квадратными скобками обозначены формы облаков: Ci - перистые, Cs - перисто-слоистые, Cc - перисто-кучевые, Ac - высококучевые, As - высокослоистые, Sc - слоисто-кучевые, Ns - слоисто-дождевые, Cu - кучевые, Cb - кучево-дождевые. Подробнее классификацию облаков см. в Атласе облаков (PDF).
T - Температура воздуха - температура, измеренная на высоте 2 м над землей.
Td - Температура точки росы - температура, при понижении до которой содержащийся в воздухе водяной пар достигнет насыщения.
f - Относительная влажность воздуха - влажноcть воздуха, измеренная на высоте 2 м над землей.
Te - Эффективная температура - температура, которую ощущает одетый по сезону человек в тени. Характеристика душности погоды. При расчете учитывается влияние влажности воздуха и скорости ветра на теплоощущения человека.
Tes - Эффективная температура на солнце - температура, которую ощущает человек, с поправкой на солнечный нагрев. Характеристика знойности погоды. Зависит от высоты солнца над горизонтом, облачности и скорости ветра. Ночью, в пасмурную погоду, а также при ветре 12 м/с и более поправка равна нулю.
P - Атмосферное давление - приведенное к уровню моря атмосферное давление.
Po - Атмосферное давление - измеренное на уровне метеостанции атмосферное давление.
Tmin - Минимальная температура - минимум температуры воздуха на высоте 2 м над землей.
Tmax - Максимальная температура - максимум температуры воздуха на высоте 2 м над землей.
R - Количество осадков - Количество выпавших осадков за период времени, мм. При наведении курсора мыши на число - период времени, за который выпало указанное количество осадков.
R24 - Количество осадков - Количество выпавших осадков за 24 часа, мм.
S - Снежный покров - Высота снежного покрова, см. При наведении курсора мыши на число - состояние снежного покрова и степень покрытия местности в баллах.